Location: Steinbach
(49.5170°N, 96.6830°W)
Time: 00:01:38
(UTC-05:00)

Daily predictions for brighter satellites

Satellite Brightness Start Highest point End
(mag) Time Altitude Azimuth Time Altitude Azimuth Time Altitude Azimuth
In-Cosmos 22 4.2 00:00:56 10° NNW 00:06:05 78° N 00:06:05 78° N
USA 215 3.5 00:08:55 51° SW 00:08:55 51° SW 00:15:08 10° WNW
GEOS 3 Rocket 4.1 00:07:45 10° NE 00:11:38 53° NE 00:11:38 53° NE
Cosmos 2219 Rocket 3.7 00:17:14 25° ENE 00:17:14 25° ENE 00:19:59 10° NE
Cosmos 2263 Rocket 3.9 00:11:56 10° NW 00:15:58 21° W 00:16:14 21° WSW
Cosmos 1464 Rocket 4.4 00:17:15 51° WSW 00:18:23 58° WNW 00:24:39 10° N
Nadezhda 4 Rocket 4.0 00:20:19 10° NNW 00:26:38 69° W 00:26:44 69° WSW
Cosmos 2322 Rocket 4.0 00:25:20 10° WSW 00:30:05 27° NW 00:34:53 10° NNE
SL-16 R/B 4.4 00:37:57 13° ENE 00:37:57 13° ENE 00:39:06 10° ENE
Cosmos 2322 4.2 00:36:02 52° WNW 00:36:32 54° NW 00:42:08 10° NNE
Cosmos 2237 Rocket 3.7 00:39:40 26° ENE 00:39:40 26° ENE 00:42:36 10° NE
ALOS 2 4.0 00:40:57 36° N 00:40:57 36° N 00:43:37 10° N
Cosmos 1627 Rocket 4.5 00:33:46 10° N 00:39:30 72° NE 00:39:30 72° NE
Cosmos 2297 4.4 00:34:46 10° NNW 00:40:12 47° NE 00:40:12 47° NE
Cosmos 2333 Rocket 3.4 00:45:35 33° ENE 00:45:35 33° ENE 00:49:04 10° NE
Cosmos 1953 4.4 00:53:27 26° NNW 00:53:27 26° NNW 00:55:24 10° N
Cosmos 2026 Rocket 4.0 00:46:31 10° N 00:52:07 74° NNE 00:52:07 74° NNE
Cosmos 1452 Rocket 4.5 00:48:01 10° NNW 00:52:27 42° NE 00:52:27 42° NE
Lacrosse 4 Rocket 3.2 01:00:52 32° N 01:00:52 32° N 01:03:51 10° NNE
COSMOS 2428 3.1 01:00:48 61° NNW 01:00:48 61° NNW 01:05:55 10° NNE
Cosmos 1680 Rocket 4.2 01:04:16 52° NNW 01:04:16 52° NNW 01:08:33 10° NNE
CZ-2C R/B 4.1 01:05:11 39° NE 01:05:11 39° NE 01:08:58 10° N
CZ-4B R/B 4.4 01:11:41 17° NNW 01:11:41 17° NNW 01:12:40 10° NNW
Cosmos 2278 Rocket 2.9 01:03:28 10° NNW 01:07:42 48° WNW 01:07:42 48° WNW
ATLAS CENTAUR R/B 3.5 01:17:15 10° NNW 01:21:01 26° NNE 01:21:01 26° NNE
CZ-2C R/B 3.4 01:19:04 10° NNE 01:23:20 48° NE 01:23:20 48° NE
ATLAS 3B R/B 2.9 01:25:37 69° ESE 01:25:37 69° ESE 01:32:32 10° NE
Cosmos 1844 Rocket 4.5 01:23:08 10° NW 01:25:49 21° WNW 01:25:49 21° WNW
COSMOS 2455 3.2 01:30:35 62° NE 01:30:35 62° NE 01:35:32 10° NE
Cosmos 1655 Rocket 4.5 01:30:14 10° NNW 01:35:47 52° WNW 01:35:47 52° WNW
Cosmos 2360 Rocket 4.2 01:37:50 17° WNW 01:40:31 23° NW 01:44:59 10° N
Cosmos 2369 Rocket 3.8 01:45:08 10° NNW 01:50:02 30° NE 01:52:13 23° E
Cosmos 2219 Rocket 2.9 01:58:57 45° NW 01:58:57 45° NW 02:04:11 10° NNE
Cosmos 1943 Rocket 4.5 01:56:56 10° N 02:01:08 21° NE 02:05:18 10° E
Exosat Rocket 4.1 02:00:10 10° NNW 02:04:10 58° NNW 02:04:10 58° NNW
Cosmos 2221 4.2 02:08:15 31° NNW 02:08:15 31° NNW 02:10:43 10° N
Nadezhda 2 Rocket 4.5 02:07:02 10° N 02:13:20 82° NE 02:13:20 82° NE
SL-16 R/B 2.4 02:19:50 67° NNE 02:19:50 67° NNE 02:24:46 10° NNE
Cosmos 2237 Rocket 2.9 02:21:30 47° NW 02:21:30 47° NW 02:26:55 10° NNE
CZ-4C R/B 2.6 02:26:08 57° ENE 02:26:08 57° ENE 02:31:18 10° NE
USA 238 DEB 3.6 02:26:22 80° SSE 02:26:32 80° SE 02:33:37 10° NE
USA 238 3.6 02:26:29 79° SSE 02:26:39 80° SE 02:33:43 10° NE
Cosmos 2266 Rocket 4.4 02:21:42 10° NNW 02:27:23 54° WNW 02:27:23 54° WNW
Cosmos 2333 Rocket 3.2 02:27:34 38° WNW 02:27:58 39° NW 02:33:23 10° NNE
Cosmos 1244 Rocket 4.4 02:27:00 10° N 02:33:22 87° E 02:33:26 86° ESE
Cosmos 1269 Rocket 4.3 02:38:50 63° NE 02:38:50 63° NE 02:43:20 10° NNE
ATLAS 5 CENTAUR R/B 4.2 02:38:58 13° E 02:38:58 13° E 02:40:46 10° E
Lacrosse 4 Rocket 4.4 02:37:54 10° NW 02:39:35 12° NNW 02:41:17 10° N
Cosmos 1151 Rocket 4.3 02:41:02 39° NE 02:41:02 39° NE 02:44:03 10° NNE
NOSS 3-2 (A) 4.0 02:40:16 47° ESE 02:40:16 47° ESE 02:46:26 10° NE
Cosmos 1553 Rocket 4.4 02:39:55 47° ESE 02:40:33 49° E 02:46:24 10° NNE
Cosmos 1745 Rocket 4.4 02:34:26 10° N 02:40:45 58° ENE 02:42:00 49° ESE
Cosmos 1607 3.8 02:43:16 81° NW 02:43:17 81° NW 02:49:29 10° NE
SL-08 R/B 4.5 02:39:28 10° N 02:45:35 70° ENE 02:46:08 66° ESE
Cosmos 1867 3.7 02:46:27 71° N 02:46:27 71° N 02:51:30 10° NE
SL-16 R/B 4.1 02:41:16 10° ESE 02:46:34 31° ENE 02:51:56 10° N
NOSS 3-3 (A) 4.3 02:41:16 10° NW 02:48:36 74° SW 02:49:30 67° S
NOSS 3-3 (C) 4.3 02:41:22 10° NW 02:48:41 74° SW 02:49:39 66° S
Cosmos 1417 Rocket 4.4 02:53:10 72° SE 02:53:42 78° E 03:00:06 10° NNE
Cosmos 1340 Rocket 4.4 02:52:58 10° N 02:55:17 32° N 02:55:17 32° N
CZ-2D R/B 4.3 02:55:20 10° NE 02:58:30 16° E 03:00:55 12° ESE
In-Cosmos 22 Rocket 4.4 02:53:32 10° N 02:58:49 60° ENE 02:59:16 57° E
NOSS 3-2 (C) 3.8 02:58:41 51° SE 02:58:59 51° ESE 03:05:29 10° NE
ATLAS CENTAUR R/B 3.8 02:56:13 10° NW 02:57:18 17° NW 02:57:18 17° NW
Cosmos 1603 3.6 03:02:11 79° ESE 03:02:11 79° ESE 03:07:55 10° NNE
Cosmos 1110 Rocket 4.1 02:57:13 10° NNW 03:01:49 69° NNW 03:01:49 69° NNW
Cosmos 1726 3.9 03:05:38 30° NE 03:05:38 30° NE 03:07:56 10° NNE
CZ-2C R/B 4.1 02:59:57 10° N 03:04:30 27° WNW 03:04:51 27° WNW
Cosmos 1892 4.4 03:08:23 10° N 03:11:43 30° ENE 03:11:43 30° ENE
COSMOS 2455 4.4 03:13:42 22° WNW 03:16:08 28° NNW 03:21:18 10° NNE
ATLAS 3B R/B 3.7 03:12:52 27° W 03:16:27 43° NNW 03:23:21 10° NE
Cosmos 2251 Rocket 3.8 03:17:15 57° ESE 03:17:27 57° ESE 03:22:36 10° NNE
Meteor 1-4 Rocket 4.3 03:19:08 29° N 03:19:08 29° N 03:21:00 10° NNE
CBERS-1 4.2 03:12:41 10° NNE 03:17:45 60° ESE 03:18:04 59° ESE
PSLV R/B 4.2 03:13:19 10° N 03:17:28 55° NW 03:17:28 55° NW
CZ-3A R/B 3.1 03:17:27 39° W 03:19:47 69° NNW 03:23:55 10° ENE
Resurs 1-4 Rocket 3.8 03:18:14 10° NE 03:22:35 25° E 03:24:59 19° SE
NPP 3.6 03:18:58 10° NNE 03:24:24 77° ESE 03:24:55 70° SSE
Meteor 2-2 Rocket 4.4 03:24:13 58° W 03:24:34 59° WNW 03:30:23 10° N
Cosmos 1943 3.4 03:28:04 54° SSE 03:28:49 60° ESE 03:34:23 10° NE
SL-08 R/B 3.7 03:31:39 50° NW 03:31:39 50° NW 03:35:26 10° NNW
Cosmos 1300 3.6 03:32:34 46° N 03:32:34 46° N 03:35:22 10° N
Cosmos 494 Rocket 4.2 03:32:31 54° SE 03:33:10 59° ESE 03:38:21 10° NNE
Cosmos 2369 Rocket 2.3 03:28:56 10° NW 03:33:56 57° W 03:33:56 57° W
Meteor 2-3 Rocket 3.6 03:29:25 10° NNW 03:35:13 84° W 03:36:19 61° S
Cosmos 839 Rocket 4.5 03:28:51 10° NW 03:37:00 54° WSW 03:38:06 50° SW
UNK 4.5 03:36:20 32° SE 03:38:06 51° ENE 03:42:34 10° N
Cosmos 1869 Rocket 4.3 03:37:54 10° NNW 03:41:13 44° NW 03:41:13 44° NW
Cosmos 1455 3.6 03:43:33 32° ESE 03:44:06 33° E 03:47:38 10° NNE
AQUA 3.6 03:40:08 10° NNE 03:44:55 83° WNW 03:45:11 78° SW
Cosmos 1943 Rocket 2.2 03:40:06 10° NNW 03:45:49 80° ENE 03:50:12 17° SSE
Cosmos 2315 Rocket 4.3 03:47:44 31° SSE 03:50:42 62° E 03:56:56 10° NNE
Cosmos 1302 Rocket 3.9 03:47:17 10° NNW 03:52:31 68° WSW 03:52:58 64° SW
Cosmos 1184 Rocket 3.7 03:52:47 10° N 03:56:06 49° ENE 03:56:06 49° ENE
TELKOM 3 4.4 03:58:56 77° SW 03:59:03 78° SSW 04:05:11 10° ESE
ERS-2 2.5 03:56:16 10° NNE 03:59:58 57° ESE 04:00:06 57° ESE
Cosmos 1271 Rocket 3.8 04:02:46 35° NW 04:02:46 35° NW 04:05:57 10° N
SeaSat 1 3.7 03:57:51 10° ESE 04:02:29 42° NE 04:07:08 10° NNW
SL-16 R/B 3.9 04:01:42 18° WNW 04:03:56 23° NW 04:08:23 10° N
ERBS 3.8 04:04:19 31° NNW 04:04:40 32° NNW 04:07:53 10° NE
USA 234 4.1 03:59:55 10° ENE 04:05:56 37° SE 04:08:50 26° S
Cosmos 2242 Rocket 3.5 04:07:27 60° SSW 04:08:17 87° W 04:12:52 10° N
IRS-1D 3.7 04:04:23 10° NNE 04:09:36 70° ESE 04:11:54 34° S
Spot 4 Rocket 3.9 04:05:22 10° NNE 04:10:33 84° WNW 04:12:08 46° SSW
Cosmos 1656 Rocket 4.0 04:05:28 10° NNW 04:10:53 63° ENE 04:16:15 10° SE
Cosmos 1825 3.7 04:08:15 10° N 04:11:47 35° ENE 04:15:16 10° SE
Meteor 2-10 4.0 04:10:53 42° SSW 04:12:49 89° WNW 04:18:10 10° NNE
ARIANE 5 R/B 2.6 04:07:48 10° NNE 04:13:04 78° ESE 04:15:13 37° S
CZ-4C R/B 3.4 04:11:18 24° W 04:14:10 37° NNW 04:20:10 10° NE
Cosmos 1733 Rocket 2.9 04:13:06 10° NNW 04:17:30 81° W 04:18:46 46° S
Abrixas rocket 3.7 04:19:35 28° SE 04:19:35 28° SE 04:21:24 10° ESE
Cosmos 724 4.3 04:16:02 42° SW 04:18:14 84° NW 04:24:21 10° NE
IRS-1C 4.3 04:14:06 10° N 04:19:19 55° WNW 04:20:51 41° WSW
ATLAS 5 CENTAUR R/B 1.9 04:20:31 44° SSW 04:22:06 77° SE 04:27:29 10° NE
Cosmos 1707 Rocket 4.4 04:26:56 34° W 04:27:18 35° WNW 04:31:26 10° N
Cosmos 1709 Rocket 4.1 04:21:17 10° NNW 04:27:28 55° W 04:30:26 30° SSW
Cosmos 389 Rocket 3.0 04:26:32 39° SSE 04:27:31 55° E 04:31:00 10° NNE
SL-16 R/B 2.6 04:26:22 26° S 04:29:54 57° W 04:36:03 10° NNW
NOSS 3-2 (A) 4.1 04:27:39 27° W 04:30:57 50° NW 04:37:42 10° NE
CZ-2D R/B 4.3 04:27:25 10° NNE 04:31:42 49° E 04:34:35 19° SSE
ADEOS 3.8 04:27:19 10° N 04:32:25 53° WNW 04:34:16 35° WSW
ARGOS Delta rocket 4.5 04:30:06 10° NNE 04:34:23 48° E 04:37:54 14° SSE
Cosmos 2292 Rocket 4.5 04:33:44 10° NNW 04:35:09 22° NW 04:35:09 22° NW
CENTAUR R/B 2.8 04:34:26 26° SSW 04:38:06 65° SE 04:45:04 10° NE
Iridium 2 4.3 04:35:08 10° NNW 04:38:32 36° W 04:38:32 36° W
SL-08 ROCKET BODY 4.5 04:33:06 10° N 04:39:10 81° E 04:45:17 10° SSE
CZ-2D R/B 2.0 04:33:59 10° NNE 04:39:17 82° WNW 04:42:14 27° SSW
Cosmos 1726 3.9 04:40:18 18° WNW 04:40:18 18° WNW 04:42:40 10° NNW
Cosmos 1992 Rocket 3.9 04:38:50 10° NNW 04:44:05 75° WSW 04:49:18 10° SSE
Cosmos 1892 4.2 04:44:24 10° NW 04:46:47 22° WNW 04:46:47 22° WNW
Cosmos 1908 Rocket 3.4 04:44:54 10° NNW 04:49:19 82° W 04:53:33 11° S
NOSS 3-2 (C) 4.2 04:46:08 22° W 04:50:01 48° NW 04:56:48 10° NE
CZ-2C R/B 3.8 04:45:54 10° SSE 04:50:19 76° ENE 04:54:47 10° NNW
Cosmos 2074 Rocket 3.9 04:44:53 10° NNW 04:51:08 77° W 04:57:21 10° S
Cosmos 2327 Rocket 4.4 04:46:52 10° NNW 04:52:59 77° W 04:59:08 10° S
MTI 3.8 04:53:23 33° SSW 04:54:40 59° WSW 04:58:00 10° NNW
SL-27 R/B 2.4 04:53:46 34° SSW 04:55:16 86° WNW 04:58:54 10° NNE
UNKNOWN OBJECT B 2.6 04:52:00 10° N 04:55:43 72° WNW 04:57:28 29° SSW
EO 1 Del DPAF 3.7 04:55:10 32° SW 04:56:22 42° W 05:00:07 10° NNW
Cosmos 2154 Rocket 4.5 04:51:28 10° N 04:57:47 65° ENE 05:04:05 10° SSE
Cosmos 2184 Rocket 4.0 04:52:19 10° NNW 04:58:42 72° W 05:05:01 10° S
Thor Agena Rocket 4.0 04:57:05 10° SSE 05:02:12 67° ENE 05:07:26 10° N
Cosmos 1862 3.3 04:58:36 10° NNW 05:02:32 59° W 05:05:48 14° S
Resurs 1-4 Rocket 2.3 04:57:37 10° N 05:02:45 53° WNW 05:06:03 22° SW
Okean O Rocket 1.9 05:00:45 10° NNE 05:05:14 68° ESE 05:09:40 10° S
ATLAS 3B R/B 4.5 05:02:59 10° WNW 05:09:04 26° N 05:14:54 10° NE
USA 32 4.2 05:03:55 10° S 05:09:09 78° E 05:14:25 10° N
Cosmos 1869 4.0 05:09:31 25° WSW 05:11:08 36° WNW 05:14:50 10° N
Cosmos 2221 Rocket 3.7 05:06:52 10° S 05:11:16 77° E 05:15:42 10° NNE
ADEOS II 3.9 05:06:44 10° NNE 05:11:24 31° E 05:16:03 10° SSE
Cosmos 1703 Rocket 3.6 05:07:23 11° S 05:11:46 86° E 05:16:18 10° N
Cosmos 1610 Rocket 4.5 05:05:38 10° NNW 05:12:00 78° W 05:18:16 10° S
Cosmos 1943 4.3 05:09:53 17° W 05:13:15 30° NW 05:18:13 10° NNE
Okean-O 4.4 05:11:56 10° NNE 05:15:55 31° E 05:19:52 10° SSE
Cosmos 1455 3.6 05:18:36 19° W 05:19:54 23° WNW 05:23:04 10° NNW
Cosmos 1408 3.1 05:16:42 10° NNW 05:20:13 39° W 05:23:14 13° SSW
Sich 1 Rocket 4.3 05:17:10 10° NNW 05:21:07 33° W 05:24:18 14° SSW
Meteor 1-14 Rocket 4.4 05:15:26 10° NNW 05:21:18 86° ENE 05:27:14 10° SSE
Cosmos 2369 4.3 05:15:44 10° NNW 05:21:25 61° ENE 05:27:06 10° SE
Cosmos 2341 Rocket 4.2 05:17:30 10° N 05:23:50 78° E 05:30:11 10° SSE
COSMOS 2406 3.2 05:19:49 15° SW 05:24:43 76° WNW 05:30:30 10° NNE
CZ-4B R/B 3.2 05:21:50 10° NNE 05:27:11 82° ESE 05:32:28 10° SSW
Cosmos 1943 Rocket 3.5 05:25:02 10° WNW 05:28:52 19° W 05:31:30 14° SW
Cosmos 2151 Rocket 4.2 05:25:30 10° N 05:29:52 61° ENE 05:34:13 10° SSE
Cosmos 1933 3.7 05:27:35 14° SSW 05:30:51 46° WNW 05:34:50 10° N
MOZ.5/SAFIR/RUBIN 5/SL-8 4.1 05:26:34 10° S 05:30:59 43° W 05:35:26 10° NNW
CZ-4B DEB 4.3 05:26:03 10° NNE 05:31:34 83° ESE 05:37:01 10° SSW
IRS-1C Rocket 4.1 05:27:36 10° NNE 05:32:52 72° WNW 05:38:07 10° SSW
ERS-2 4.1 05:31:08 10° NNW 05:33:21 15° WNW 05:34:55 12° W
Meteor 2-13 Rocket 4.5 05:30:37 10° N 05:36:42 86° ENE 05:42:46 10° S
Okean 1-7 3.0 05:33:14 10° SSW 05:37:34 81° W 05:41:58 10° N
Cosmos 407 Rocket 3.6 05:32:57 10° SSW 05:38:11 81° ESE 05:43:32 10° NNE
CZ-4B R/B 2.6 05:35:48 10° N 05:39:28 76° WNW 05:43:16 10° SSW
SeaSat 1 3.0 05:35:32 10° S 05:40:04 36° WSW 05:44:38 10° NW
ERBS 4.5 05:39:18 10° NW 05:42:15 24° N 05:45:11 10° ENE
Cosmos 1782 4.5 05:42:08 10° SSE 05:45:52 37° E 05:49:38 10° NNE
Cosmos 1825 3.6 05:44:21 10° NW 05:47:12 20° W 05:50:02 10° SW
Cosmos 2082 Rocket 4.3 05:43:34 10° SSE 05:48:18 28° ESE 05:53:03 10° NE
USA 234 3.3 05:42:47 10° ENE 05:49:23 84° NNW 05:55:56 10° WSW
ARIANE 5 R/B 4.1 05:47:57 10° NNW 05:51:38 20° WNW 05:55:17 10° WSW
Cosmos 2218 Rocket 4.5 05:45:47 10° N 05:51:55 66° ENE 05:58:01 10° SSE
PSLV R/B 4.4 05:48:58 10° N 05:52:27 36° WNW 05:55:58 10° SW
Okean 2 Rocket 3.6 05:49:29 10° NNW 05:53:40 38° W 05:57:51 10° SSW
Abrixas rocket 3.8 05:52:33 11° WSW 05:54:44 18° SSW 05:57:08 10° SSE
Aureole 3 Rocket 3.8 05:56:01 10° SSW 06:01:44 45° WNW 06:05:54 10° N
CZ-4C R/B 4.3 05:59:38 10° NW 06:04:32 24° N 06:09:57 10° NE
ATLAS 5 CENTAUR R/B 3.2 06:02:50 10° W 06:07:22 31° NNW 06:12:17 10° NE
ADEOS Rocket 3.7 06:00:59 10° NNE 06:08:46 85° WNW 06:16:31 10° SSW
Cosmos 1674 Rocket 4.2 06:05:09 10° S 06:09:31 62° E 06:13:53 10° NNE
Meteor 1-31 Rocket 3.6 06:06:46 10° NNE 06:10:31 55° E 06:14:17 10° S
